Sheldon, IA

8:16 AM CDT on April 27, 2017 (GMT -0500)
Sheldon Municipal

Weather History for KSHL - October, 2011

Change the Weather History Date:

Wednesday, October 19, 2011

  Actual Average Record
Temperature  
Mean Temperature 32 °F -  
Max Temperature 44 °F 58 °F 87 °F (2003)
Min Temperature 19 °F 32 °F 5 °F (1997)
Degree Days  
Heating Degree Days 34    
Moisture  
Dew Point 23 °F    
Average Humidity 65    
Maximum Humidity 86    
Minimum Humidity 49    
Precipitation  
Precipitation 0.00 in - - ()
Sea Level Pressure  
Sea Level Pressure 30.11 in    
Wind  
Wind Speed 10 mph (North)    
Max Wind Speed 16 mph    
Max Gust Speed 20 mph    
Visibility 10 miles    
Events      
Averages and records for this station are not official NWS values.
T = Trace of Precipitation, MM = Missing Value Source: NWS Daily Summary

Daily Weather History Graph

Daily Weather History Graph

Search for Another Location

Airport or City:

Trip Planner

Search our weather history database for the weather conditions in past years. The results will help you decide how hot, cold, wet, or windy it might be!

Date:

Astronomy

Oct. 19, 2011 Rise Set
Actual Time 7:41 AM CDT 6:34 PM CDT
Civil Twilight 7:12 AM CDT 7:03 PM CDT
Nautical Twilight 6:39 AM CDT 7:36 PM CDT
Astronomical Twilight 6:06 AM CDT 8:09 PM CDT
Moon No Moon Rise 2:17 PM CDT (10/19)
Length of Visible Light 11h 50m
Length of Day
10h 52m
Waning Gibbous, 54% of the Moon is Illuminated
Oct 19
Waning Gibbous
Oct 19
Last Quarter
Oct 26
New
Nov 2
First Quarter
Nov 10
Full

Hourly Weather History & Observations

Time (CDT) Temp. Windchill Dew Point Humidity Pressure Visibility Wind Dir Wind Speed Gust Speed Precip Events Conditions
12:15 AM 28.4 °F 19.7 °F 19.4 °F 69% 30.09 in 10.0 mi NNW 9.2 mph - N/A   Clear
12:35 AM 28.4 °F 20.4 °F 19.4 °F 69% 30.09 in 10.0 mi NNW 8.1 mph - N/A   Clear
12:55 AM 26.6 °F 18.2 °F 19.4 °F 74% 30.09 in 10.0 mi NNW 8.1 mph - N/A   Clear
1:15 AM 26.6 °F 18.2 °F 19.4 °F 74% 30.09 in 10.0 mi NNW 8.1 mph - N/A   Clear
1:35 AM 26.6 °F 18.2 °F 19.4 °F 74% 30.09 in 10.0 mi NNW 8.1 mph - N/A   Clear
1:55 AM 28.4 °F 19.7 °F 21.2 °F 74% 30.09 in 10.0 mi NNW 9.2 mph - N/A   Clear
2:15 AM 26.6 °F 17.5 °F 19.4 °F 74% 30.09 in 10.0 mi NNW 9.2 mph - N/A   Clear
2:35 AM 26.6 °F 18.2 °F 19.4 °F 74% 30.09 in 10.0 mi NNW 8.1 mph - N/A   Clear
3:15 AM 26.6 °F 18.2 °F 19.4 °F 74% 30.09 in 10.0 mi NNW 8.1 mph - N/A   Clear
3:35 AM 24.8 °F 15.3 °F 19.4 °F 80% 30.09 in 10.0 mi NNW 9.2 mph - N/A   Clear
3:55 AM 24.8 °F 16.1 °F 19.4 °F 80% 30.09 in 10.0 mi NNW 8.1 mph - N/A   Clear
4:15 AM 24.8 °F 17.9 °F 19.4 °F 80% 30.09 in 10.0 mi North 5.8 mph - N/A   Clear
4:35 AM 23.0 °F 14.7 °F 17.6 °F 80% 30.09 in 10.0 mi North 6.9 mph - N/A   Clear
5:15 AM 21.2 °F 11.7 °F 17.6 °F 86% 30.10 in 10.0 mi North 8.1 mph - N/A   Clear
5:35 AM 21.2 °F 13.6 °F 15.8 °F 80% 30.10 in 10.0 mi North 5.8 mph - N/A   Clear
6:15 AM 21.2 °F 12.6 °F 15.8 °F 80% 30.11 in 10.0 mi NNW 6.9 mph - N/A   Clear
6:35 AM 21.2 °F 12.6 °F 17.6 °F 86% 30.12 in 10.0 mi NNW 6.9 mph - N/A   Clear
6:55 AM 19.4 °F 11.5 °F 15.8 °F 86% 30.12 in 10.0 mi NNW 5.8 mph - N/A   Clear
7:15 AM 21.2 °F 11.7 °F 17.6 °F 86% 30.12 in 10.0 mi NNW 8.1 mph - N/A   Clear
7:35 AM 21.2 °F 11.7 °F 17.6 °F 86% 30.12 in 10.0 mi NNW 8.1 mph - N/A   Clear
7:55 AM 21.2 °F 12.6 °F 17.6 °F 86% 30.13 in 10.0 mi NNW 6.9 mph - N/A   Clear
8:15 AM 23.0 °F 14.7 °F 17.6 °F 80% 30.13 in 10.0 mi North 6.9 mph - N/A   Clear
8:35 AM 24.8 °F 15.3 °F 19.4 °F 80% 30.13 in 10.0 mi NNW 9.2 mph - N/A   Clear
8:55 AM 26.6 °F 16.2 °F 19.4 °F 74% 30.14 in 10.0 mi NNW 11.5 mph - N/A   Clear
9:15 AM 30.2 °F 20.2 °F 21.2 °F 69% 30.14 in 10.0 mi NNW 12.7 mph - N/A   Clear
9:35 AM 30.2 °F 20.2 °F 21.2 °F 69% 30.14 in 10.0 mi North 12.7 mph - N/A   Clear
9:55 AM 33.8 °F 24.3 °F 23.0 °F 65% 30.14 in 10.0 mi North 13.8 mph - N/A   Clear
10:15 AM 35.6 °F 26.6 °F 23.0 °F 60% 30.15 in 10.0 mi North 13.8 mph - N/A   Mostly Cloudy
10:35 AM 35.6 °F 27.1 °F 24.8 °F 65% 30.15 in 10.0 mi North 12.7 mph - N/A   Overcast
11:15 AM 39.2 °F 31.2 °F 23.0 °F 52% 30.14 in 10.0 mi North 13.8 mph - N/A   Overcast
11:35 AM 39.2 °F 32.0 °F 23.0 °F 52% 30.14 in 10.0 mi NNW 11.5 mph 17.3 mph N/A   Overcast
11:55 AM 39.2 °F 31.2 °F 23.0 °F 52% 30.14 in 10.0 mi NNW 13.8 mph 18.4 mph N/A   Overcast
12:15 PM 41.0 °F 33.5 °F 23.0 °F 49% 30.14 in 10.0 mi North 13.8 mph 19.6 mph N/A   Overcast
12:35 PM 41.0 °F 33.9 °F 24.8 °F 53% 30.14 in 10.0 mi North 12.7 mph 19.6 mph N/A   Overcast
12:55 PM 42.8 °F 36.6 °F 24.8 °F 49% 30.13 in 10.0 mi North 11.5 mph 18.4 mph N/A   Overcast
1:15 PM 42.8 °F 35.4 °F 24.8 °F 49% 30.13 in 10.0 mi North 15.0 mph - N/A   Overcast
1:35 PM 42.8 °F 35.4 °F 26.6 °F 53% 30.12 in 10.0 mi North 15.0 mph 18.4 mph N/A   Overcast
1:55 PM 42.8 °F 36.2 °F 26.6 °F 53% 30.12 in 10.0 mi North 12.7 mph 19.6 mph N/A   Overcast
2:15 PM 42.8 °F 36.2 °F 26.6 °F 53% 30.11 in 10.0 mi NNW 12.7 mph - N/A   Overcast
2:35 PM 42.8 °F 35.8 °F 26.6 °F 53% 30.10 in 10.0 mi North 13.8 mph 18.4 mph N/A   Overcast
2:55 PM 42.8 °F 35.8 °F 26.6 °F 53% 30.10 in 10.0 mi North 13.8 mph - N/A   Overcast
3:15 PM 42.8 °F 36.2 °F 26.6 °F 53% 30.10 in 10.0 mi North 12.7 mph - N/A   Overcast
3:55 PM 44.6 °F 38.4 °F 26.6 °F 49% 30.09 in 10.0 mi North 12.7 mph 18.4 mph N/A   Overcast
4:15 PM 44.6 °F 38.8 °F 26.6 °F 49% 30.09 in 10.0 mi North 11.5 mph - N/A   Overcast
4:35 PM 44.6 °F 38.1 °F 26.6 °F 49% 30.09 in 10.0 mi North 13.8 mph - N/A   Overcast
4:55 PM 44.6 °F 38.4 °F 26.6 °F 49% 30.09 in 10.0 mi North 12.7 mph - N/A   Overcast
5:15 PM 44.6 °F 37.8 °F 28.4 °F 53% 30.09 in 10.0 mi North 15.0 mph - N/A   Overcast
5:35 PM 42.8 °F 35.8 °F 28.4 °F 57% 30.09 in 10.0 mi North 13.8 mph - N/A   Overcast
5:55 PM 42.8 °F 35.1 °F 28.4 °F 57% 30.09 in 10.0 mi NNE 16.1 mph - N/A   Overcast
6:15 PM 42.8 °F 36.2 °F 28.4 °F 57% 30.09 in 10.0 mi North 12.7 mph - N/A   Overcast
6:35 PM 42.8 °F 36.2 °F 28.4 °F 57% 30.10 in 10.0 mi North 12.7 mph 18.4 mph N/A   Overcast
6:55 PM 42.8 °F 36.6 °F 28.4 °F 57% 30.10 in 10.0 mi North 11.5 mph - N/A   Overcast
7:15 PM 42.8 °F 38.6 °F 28.4 °F 57% 30.10 in 10.0 mi North 6.9 mph 11.5 mph N/A   Overcast
7:35 PM 42.8 °F 36.6 °F 28.4 °F 57% 30.10 in 10.0 mi North 11.5 mph - N/A   Overcast
7:55 PM 42.8 °F 36.6 °F 28.4 °F 57% 30.10 in 10.0 mi North 11.5 mph - N/A   Overcast
8:35 PM 41.0 °F 35.8 °F 28.4 °F 61% 30.10 in 10.0 mi North 8.1 mph - N/A   Overcast
8:55 PM 41.0 °F 34.7 °F 28.4 °F 61% 30.10 in 10.0 mi North 10.4 mph - N/A   Overcast
9:15 PM 41.0 °F 33.9 °F 28.4 °F 61% 30.10 in 10.0 mi NNE 12.7 mph 16.1 mph N/A   Overcast
9:35 PM 41.0 °F 35.2 °F 28.4 °F 61% 30.10 in 10.0 mi NNE 9.2 mph - N/A   Overcast
9:55 PM 41.0 °F 35.8 °F 28.4 °F 61% 30.10 in 10.0 mi NNE 8.1 mph - N/A   Overcast
10:15 PM 41.0 °F 35.8 °F 28.4 °F 61% 30.09 in 10.0 mi NNE 8.1 mph - N/A   Overcast
10:35 PM 41.0 °F 35.2 °F 28.4 °F 61% 30.09 in 10.0 mi NE 9.2 mph - N/A   Overcast
10:55 PM 39.2 °F 35.0 °F 26.6 °F 61% 30.09 in 10.0 mi North 5.8 mph - N/A   Mostly Cloudy
11:15 PM 33.8 °F 29.6 °F 26.6 °F 75% 30.08 in 10.0 mi NNW 4.6 mph - N/A   Clear
11:35 PM 32.0 °F 25.6 °F 24.8 °F 75% 30.08 in 10.0 mi NNW 6.9 mph - N/A   Clear
11:55 PM 28.4 °F - 23.0 °F 80% 30.07 in 10.0 mi Calm Calm - N/A   Clear